Location: T�bingen+AIT
(48.5342°N, 9.0700°E)
Time: 12:37:50
(UTC+02:00)

Daily predictions for brighter satellites

Satellite Brightness Start Highest point End
(mag) Time Altitude Azimuth Time Altitude Azimuth Time Altitude Azimuth
NOSS 3-2 (C) 4.0 21:43:09 10° S 21:48:40 38° ESE 21:54:41 10° NE
Meteor 2-10 Rocket 4.3 21:44:11 10° NNW 21:49:55 65° W 21:55:41 10° S
ERS-1 Rocket 3.1 21:45:01 10° SSE 21:50:01 70° ENE 21:55:03 10° N
Cosmos 2297 4.0 21:44:54 10° SSW 21:50:33 75° WNW 21:56:13 10° NNE
Resurs 01 Rocket 4.1 21:49:25 10° SW 21:52:52 22° W 21:56:21 10° NW
Cosmos 2346 Rocket 4.4 22:01:30 10° S 22:07:31 75° E 22:13:35 10° NNE
SL-08 RB Rocket 4.0 22:04:54 10° SSE 22:09:27 55° ENE 22:14:02 10° N
SAR-Lupe-4 4.3 22:06:29 10° S 22:09:59 52° W 22:13:31 10° NNW
Cosmos 858 Rocket 4.5 22:05:33 10° SSW 22:10:44 86° ESE 22:16:00 10° NNE
YAOGAN 6 4.0 22:07:35 10° SSW 22:11:05 38° W 22:14:35 10° NNW
Cosmos 1898 Rocket 3.7 22:05:49 10° SSW 22:11:06 83° WNW 22:16:29 10° NNE
Cosmos 1933 Rocket 4.3 22:08:49 10° SSW 22:13:04 56° WNW 22:17:22 10° N
Cosmos 2084 3.4 22:09:34 10° NW 22:13:20 61° NE 22:16:57 12° SE
NOAA 11 4.4 22:11:50 10° S 22:17:17 74° WSW 22:22:49 10° NNW
CENTAUR R/B 3.6 22:14:09 10° SSE 22:18:49 23° ESE 22:23:55 10° ENE
H-2A R/B 3.8 22:18:21 10° ESE 22:21:12 18° ENE 22:24:03 10° NNE
Cosmos 1825 3.1 22:18:17 11° SSE 22:21:25 30° E 22:24:47 10° NNE
Lacrosse 5 rocket 3.1 22:22:21 11° ESE 22:22:21 11° ESE 22:22:38 10° ESE
Cosmos 1125 Rocket 4.5 22:17:07 10° SSE 22:21:31 28° E 22:25:55 10° NE
Helios 1B rocket 3.5 22:19:33 10° N 22:23:34 50° WNW 22:27:32 10° SW
Cosmos 1943 Rocket 3.3 22:20:06 10° SSE 22:24:31 24° ESE 22:28:55 10° NE
Cosmos 990 Rocket 4.0 22:19:27 10° SSW 22:24:39 84° ESE 22:29:56 10° NNE
Tiangong 2 2.5 22:22:23 10° WSW 22:25:04 24° SSW 22:26:53 15° SE
MetOp-A 4.4 22:20:12 10° S 22:25:32 72° WSW 22:30:55 10° NNW
Cosmos 1892 3.3 22:23:45 10° SSW 22:27:34 60° WNW 22:31:24 10° N
Cosmos 1346 Rocket 3.8 22:24:38 10° NNW 22:28:25 45° W 22:32:12 10° SSW
H-2A R/B 2.2 22:23:21 11° SSE 22:28:39 69° ENE 22:33:59 10° N
Cosmos 2369 Rocket 2.5 22:24:09 10° S 22:29:29 45° ESE 22:34:53 10° NE
Meteor 2-6 Rocket 4.4 22:28:35 10° N 22:34:30 73° ENE 22:39:59 12° SSE
Lacrosse 4 Rocket 2.5 22:32:41 10° NNW 22:36:56 39° NE 22:40:30 14° ESE
Cosmos 1408 2.8 22:36:10 12° S 22:39:24 52° E 22:43:03 10° NNE
Meteor 2-3 Rocket 4.4 22:41:37 10° SSW 22:47:16 58° WNW 22:52:53 10° N
ATLAS 3B R/B 4.0 22:40:48 10° WSW 22:47:49 46° NW 22:54:34 10° NE
COSMOS 2455 2.9 22:42:13 10° SSW 22:48:06 61° ESE 22:54:03 10° NE
Okean 1-7 3.6 22:49:50 10° NNW 22:54:10 56° W 22:58:19 11° S
Nimbus 7 Rocket 4.4 22:48:41 10° NNE 22:54:37 69° ESE 23:00:27 10° S
Cosmos 1606 2.9 22:51:11 10° NNW 22:54:57 68° W 22:57:55 16° S
Cosmos 1937 Rocket 4.4 22:50:19 10° SW 22:55:18 50° WNW 23:00:19 10° NNE
deb Kosmos-1763 4.1 22:51:33 10° NNW 22:55:20 73° ENE 22:57:35 23° SSE
Cosmos 1340 2.6 22:52:07 10° N 22:55:55 81° ENE 22:58:23 21° SSE
Cosmos 1782 3.4 22:55:15 10° NNW 22:59:12 56° W 23:02:33 14° S
DMSP B5D2-2 4.2 22:54:21 10° NNE 22:59:31 58° E 23:03:50 15° S
ATLAS 5 CENTAUR R/B 2.4 22:58:06 10° NW 23:03:58 80° NE 23:08:39 19° SE
Gbstr 26 Del rocket 3.7 23:02:18 10° W 23:06:56 55° N 23:10:51 10° ENE
Nadezhda 4 Rocket 4.1 23:03:38 17° SSE 23:08:26 57° E 23:14:28 10° NNE
Cosmos 1733 Rocket 3.3 23:06:43 22° SSE 23:09:12 50° E 23:13:24 10° NNE
Landsat 7 3.9 23:06:26 18° S 23:09:56 76° WSW 23:14:44 10° NNW
GEOS 3 Rocket 4.1 23:06:58 19° SSE 23:10:32 49° SW 23:15:38 10° NW
IGS 5A 3.4 23:10:41 24° SSE 23:13:07 81° ENE 23:17:18 10° NNW
Cosmos 1862 3.2 23:16:07 21° S 23:18:41 82° E 23:22:41 10° NNE
SPOT 5 4.3 23:14:24 10° SSW 23:19:21 37° W 23:24:18 10° NNW
Cosmos 1048 Rocket 4.3 23:14:56 10° NNW 23:20:14 62° WSW 23:23:42 21° S
Shenzhou-11 Module 4.4 23:18:57 10° SW 23:19:50 12° SW 23:19:50 12° SW
Cosmos 158 Rocket 4.2 23:16:14 10° NNW 23:21:05 57° WSW 23:24:09 21° S
NOSS 3-2 (A) 4.3 23:15:25 10° WSW 23:21:27 56° NW 23:28:14 10° NE
Terra 1.9 23:22:03 23° S 23:25:02 77° WSW 23:29:50 10° NNW
Cosmos 1975 Rocket 4.4 23:21:47 10° NNE 23:25:36 27° ENE 23:27:31 20° ESE
CZ-4B R/B 4.2 23:22:36 10° NNE 23:27:15 36° E 23:29:09 26° SE
Cosmos 2251 Rocket 4.0 23:23:48 10° NNW 23:28:55 50° ENE 23:31:51 24° SE
Cosmos 1656 Rocket 4.2 23:29:39 26° SSE 23:31:51 37° ESE 23:36:53 10° NE
Cosmos 2227 Rocket 4.0 23:27:30 10° N 23:31:56 23° NE 23:36:22 10° E
Cosmos 2219 3.8 23:26:38 10° NNW 23:32:13 48° NE 23:35:49 21° ESE
Cosmos 1437 2.9 23:30:27 10° N 23:33:38 57° ENE 23:34:21 44° SE
Cosmos 1346 3.3 23:31:31 10° N 23:34:08 43° ENE 23:34:16 43° E
CARTOSAT-1 4.1 23:36:51 23° SSW 23:39:17 52° W 23:43:32 10° NNW
NOSS 3-2 (C) 4.3 23:33:17 10° WSW 23:39:21 55° NW 23:46:08 10° NE
CZ-4 R/B 3.9 23:35:11 10° NNE 23:39:48 57° ESE 23:41:51 31° SSE
CZ-4C R/B 3.8 23:39:38 31° SE 23:41:27 56° ENE 23:45:36 10° N
Cosmos 1674 Rocket 3.6 23:37:11 10° NNW 23:41:31 73° W 23:43:35 30° S
Cosmos 1378 Rocket 3.6 23:40:46 10° N 23:45:11 70° E 23:46:57 35° SSE
Spot 4 3.8 23:42:53 31° SSE 23:45:18 87° ENE 23:50:10 10° NNW
DELTA 2 DEB (DPAF) 4.1 23:47:59 35° SSE 23:49:50 76° ENE 23:54:20 10° NNW
CZ-2C R/B 3.7 23:46:24 10° NE 23:50:43 26° E 23:52:03 23° ESE
CZ-2C R/B 3.8 23:50:24 25° ESE 23:52:54 42° ENE 23:57:34 10° N
BREEZE-M (TANK) 4.1 23:36:32 10° W 23:54:19 84° N 23:58:26 10° E
